Time,TemperatureF,DewpointF,PressureIn,WindDirection,WindDirectionDegrees,WindSpeedMPH,WindSpeedGustMPH,Humidity,HourlyPrecipIn,Conditions,Clouds,dailyrainin,SolarRadiationWatts/m^2,SoftwareType,DateUTC
2013-01-01 02:00:00,13.0,11.0,30.22,North,3,3.0,-999.0,93,-99.99,,,-99.99,0.000000,,2013-01-01 08:00:00,
2013-01-01 02:53:00,13.0,11.0,30.22,North,3,3.0,-999.0,93,-99.99,,,-99.99,0.000000,,2013-01-01 08:53:00,
2013-01-01 03:00:00,12.0,10.0,30.23,North,358,4.0,-999.0,92,-99.99,,,-99.99,0.010000,,2013-01-01 09:00:00,
2013-01-01 03:52:00,12.0,10.0,30.23,North,358,4.0,-999.0,92,-99.99,,,-99.99,0.010000,,2013-01-01 09:52:00,
2013-01-01 04:00:00,11.0,9.0,30.23,North,352,3.0,-999.0,92,-99.99,,,-99.99,0.010000,,2013-01-01 10:00:00,
2013-01-01 04:53:00,11.0,9.0,30.23,North,352,3.0,-999.0,92,-99.99,,,-99.99,0.010000,,2013-01-01 10:53:00,
2013-01-01 05:00:00,8.0,6.0,30.22,NNW,337,2.0,-999.0,91,-99.99,,,-99.99,0.010000,,2013-01-01 11:00:00,
2013-01-01 05:53:00,8.0,6.0,30.22,NNW,337,2.0,-999.0,91,-99.99,,,-99.99,0.010000,,2013-01-01 11:53:00,
2013-01-01 06:00:00,7.0,5.0,30.22,North,355,2.0,-999.0,91,-99.99,,,-99.99,0.000000,,2013-01-01 12:00:00,
2013-01-01 06:53:00,7.0,5.0,30.22,North,355,2.0,-999.0,91,-99.99,,,-99.99,0.000000,,2013-01-01 12:53:00,
2013-01-01 07:00:00,5.0,3.0,30.22,North,353,3.0,-999.0,91,-99.99,,,-99.99,0.010000,,2013-01-01 13:00:00,
2013-01-01 07:53:00,5.0,3.0,30.22,North,353,3.0,-999.0,91,-99.99,,,-99.99,0.010000,,2013-01-01 13:53:00,
2013-01-01 08:00:00,4.0,2.0,30.24,North,352,2.0,-999.0,90,-99.99,,,-99.99,2.070000,,2013-01-01 14:00:00,
2013-01-01 08:53:00,4.0,2.0,30.24,North,352,2.0,-999.0,90,-99.99,,,-99.99,2.070000,,2013-01-01 14:53:00,
2013-01-01 09:00:00,7.0,4.0,30.26,WNW,303,1.0,-999.0,88,-99.99,,,-99.99,46.150002,,2013-01-01 15:00:00,
2013-01-01 09:53:00,7.0,4.0,30.26,WNW,303,1.0,-999.0,88,-99.99,,,-99.99,46.150002,,2013-01-01 15:53:00,
2013-01-01 10:00:00,10.0,5.0,30.29,WNW,294,3.0,-999.0,81,-99.99,,,-99.99,219.399994,,2013-01-01 16:00:00,
2013-01-01 10:53:00,10.0,5.0,30.29,WNW,294,3.0,-999.0,81,-99.99,,,-99.99,219.399994,,2013-01-01 16:53:00,
2013-01-01 11:00:00,14.0,7.0,30.28,WSW,243,2.0,-999.0,74,-99.99,,,-99.99,309.000000,,2013-01-01 17:00:00,
2013-01-01 11:53:00,14.0,7.0,30.28,WSW,243,2.0,-999.0,74,-99.99,,,-99.99,309.000000,,2013-01-01 17:53:00,
2013-01-01 12:00:00,17.0,6.0,30.25,SSW,209,5.0,-999.0,62,-99.99,,,-99.99,401.500000,,2013-01-01 18:00:00,
2013-01-01 12:53:00,17.0,6.0,30.25,SSW,209,5.0,-999.0,62,-99.99,,,-99.99,401.500000,,2013-01-01 18:53:00,
2013-01-01 13:00:00,19.0,7.0,30.22,SSW,210,7.0,-999.0,59,-99.99,,,-99.99,439.299988,,2013-01-01 19:00:00,
2013-01-01 13:53:00,19.0,7.0,30.22,SSW,210,7.0,-999.0,59,-99.99,,,-99.99,439.299988,,2013-01-01 19:53:00,
2013-01-01 14:00:00,20.0,9.0,30.21,SSW,204,6.0,-999.0,61,-99.99,,,-99.99,408.399994,,2013-01-01 20:00:00,
2013-01-01 14:53:00,20.0,9.0,30.21,SSW,204,6.0,-999.0,61,-99.99,,,-99.99,408.399994,,2013-01-01 20:53:00,
2013-01-01 15:00:00,22.0,10.0,30.20,SSW,201,5.0,-999.0,60,-99.99,,,-99.99,318.299988,,2013-01-01 21:00:00,
2013-01-01 15:53:00,22.0,10.0,30.20,SSW,201,5.0,-999.0,60,-99.99,,,-99.99,318.299988,,2013-01-01 21:53:00,
2013-01-01 16:00:00,21.0,10.0,30.19,SSW,199,6.0,-999.0,63,-99.99,,,-99.99,207.100006,,2013-01-01 22:00:00,
2013-01-01 16:53:00,21.0,10.0,30.19,SSW,199,6.0,-999.0,63,-99.99,,,-99.99,207.100006,,2013-01-01 22:53:00,
2013-01-01 17:00:00,19.0,11.0,30.17,South,186,5.0,-999.0,71,-99.99,,,-99.99,67.330002,,2013-01-01 23:00:00,
2013-01-01 17:53:00,19.0,11.0,30.17,South,186,5.0,-999.0,71,-99.99,,,-99.99,67.330002,,2013-01-01 23:53:00,